Weather in Oktyabrsky

Russia / Republic of Bashkortostan     54°28′53″N   53°27′56″E
temp.,
°C
wind,
m/s
gust,
m/s
humid.,
%
clouds,
%
prec.,
mm/h
press.,
hPa
HPBL,
m
27 october, wed
wed2723:000sw6146263 0.0 1024481
02:00−1sw612699 0.0 1024391
05:00−1ssw5127539 0.0 1023368
08:00−1ssw5117960 0.0 1022344
11:00+2sw6126890 0.0 1021478
14:00+4sw71161100 0.0 1020654
17:00+4sw71365100 0.0 1019662
20:00+4sw71563100 0.0 1018600
28 october, thu
thu2823:00+3sw71662100 0.0 1017540
02:00+2sw7166098 0.0 1016521
05:00+1sw71662100 0.0 1014565
08:00+2wsw81464100 0.0 1014783
11:00+2wsw71382100 0.0 1014709
14:00+4sw6127296 0.0 1015713
17:00+5sw61270100 0.1 1015636
20:00+4sw61273100 0.0 1015477
29 october, fri
fri2923:00+4sw51276100 0.0 1015486
02:00+4sw4977100 0.1 1015507
05:00+3sw3781100 0.2 1016612
08:00+3nw3795100 1.3 1018814
11:00+1nne677680 1.6 1023631
14:00+1nne56460 0.0 1026746
17:00+1nne35455 0.0 1028679
20:00−2ne22574 0.0 103015
30 october, sat
sat3023:00−2ssw1158100 0.0 103111
02:00−2ssw2658100 0.0 1031179
05:00−1ssw41053100 0.0 1030373
08:000sw71554100 0.1 1028477
11:00+3sw8166186 0.1 1026617
14:00+6wsw81567100 0.0 1025702
17:00+6wsw7157542 0.0 1025635
20:00+5wsw6148413 0.0 1026490
31 october, sun
sun3123:00+5w41190100 0.0 1027442
02:00+6w4991100 0.0 1027326
05:00+6wsw3892100 0.0 1028263
08:00+6wsw3892100 0.0 1028246
11:00+6wsw3788100 0.0 1029311
14:00+8wsw4882100 0.0 1029375
17:00+8sw48785 0.0 1029343
20:00+5sw410837 0.0 1029230